Location: Unspecified
(0.0000°N, 0.0000°E)
Time: 01:45:33
(UTC+00:00)

Vanguard 2 - Visible Passes

Search period start: 16 December 2017 00:00
Search period end: 26 December 2017 00:00
Orbit: 553 x 2939 km, 32.9° (Epoch: 14 December)

Date Brightness Start Highest point End Pass type
(mag) Time Alt. Az. Time Alt. Az. Time Alt. Az.
16 Dec 11.3 00:27:45 11° SE 00:27:45 11° SE 00:28:04 10° SE visible
16 Dec 11.0 02:29:09 13° SSW 02:32:09 15° S 02:38:33 10° SSE visible
16 Dec 11.7 04:42:16 10° SSW 04:48:29 13° S 04:55:26 10° SSE visible
17 Dec 11.2 00:44:32 12° SSE 00:44:32 12° SSE 00:45:39 10° SSE visible
17 Dec 11.2 02:47:57 10° SSW 02:51:41 12° S 02:55:58 10° SSE visible
17 Dec 11.8 05:01:05 10° SSW 05:08:30 15° SSE 05:16:46 10° SE visible
18 Dec 11.1 01:01:18 13° SSE 01:01:18 13° SSE 01:02:55 10° SSE visible
18 Dec 11.4 03:09:37 10° S 03:11:25 10° S 03:13:20 10° S visible
18 Dec 11.8 05:19:15 10° SSW 05:28:20 17° SSE 05:38:29 10° SE visible
19 Dec 11.2 01:18:05 11° S 01:18:05 11° S 01:19:33 10° S visible
19 Dec 11.5 03:30:36 10° S 03:31:16 10° S 03:31:57 10° S visible
20 Dec 11.6 03:47:57 10° S 03:51:08 11° SSE 03:54:35 10° SSE visible
21 Dec 11.7 04:05:16 10° S 04:10:53 13° SSE 04:17:15 10° SE visible
22 Dec 11.7 04:22:36 10° S 04:30:24 17° SSE 04:39:34 10° ESE visible
23 Dec 11.6 04:39:58 10° SSW 04:49:39 21° SSE 05:01:18 10° ESE visible
24 Dec 11.5 04:57:24 10° SSW 05:08:37 28° SSE 05:22:20 10° E visible
24 Dec 8.8 18:25:31 10° N 18:28:15 15° NNE 18:30:42 10° ENE visible
25 Dec 11.6 03:10:31 10° S 03:13:33 11° SSE 03:16:51 10° SE visible
25 Dec 11.5 05:14:55 10° SSW 05:27:19 36° SE 05:42:42 10° E visible
25 Dec 8.0 18:42:32 10° NNW 18:46:36 28° NNE 18:49:15 15° E visible
